星链-33908 (STARLINK-33908)

导读

STARLINK-33908是美国星链计划的卫星,星链计划由太空探索技术公司SpaceX主导推进,该卫星于2025年4月28日发射,属于星链低轨互联网卫星星座的组成部分,主要用于为全球范围内用户提供覆盖广泛、低延迟的高速卫星互联网接入服务,补全星链星座的服务覆盖能力,强化星座整体运行稳定性。

基本信息
目录编号:
63700
目录名称:
STARLINK-33908
国际标识:
2025-087D
轨道中心:
EARTH
卫星名称:
星链-33908
卫星全名:
星链-33908 (STARLINK-33908)
卫星状态:
在轨 (已飞行412 天)
发射日期:
2025-04-28 UTC
国别 :
美国 (US)
星等 :
--
轨道信息
数据来源 国际轨道数据 AOE轨道数据
星历时间 2026-06-13T12:48:30+0800
23小时前
查看轨道信息
2026-06-08T23:00:00+0800
5天前
查看轨道信息
半长轴 6853.422km 6853.38km
偏心率 0.0001447 0.0001615
轨道倾角 53.158° 53.156°
近地点辐角 82.405° 86.013°
升交点赤经 135.856° 157.109°
平近点角 277.712° 255.731°
近地点 474.293km 474.136km
远地点 476.277km 476.35km
周期 94.107分钟 94.106分钟
每日圈数 15.301767 15.301909
详细信息
固有亮度:
5
最大亮度:
2.5
卫星平台:
Starlink V1.0
覆盖范围:
全球
运营商:
太空探索技术公司
运营商所在国:
美国
制造商(研发单位):
太空探索技术公司
制造商所在国:
美国
使用方式:
暂无
卫星简介
Starlink 计划是 SpaceX 推出的全球卫星互联网项目,通过发射低轨道卫星,为全球尤其是偏远地区提供高速、低延迟的互联网服务。自 2019 年起,Starlink 已部署数千颗卫星,旨在缩小全球数字鸿沟,推动互联网普及。该项目还为军事、航空等行业提供通信支持,带来广泛经济效益。
2D轨道图
3D轨道图
轨道高度分析图
轨道倾角分析图
轨道综合分析图
查看轨道综合分析图